• Processing (Info)

  • MPEC 2010-R37 : 2010 RE12

    The following Minor Planet Electronic Circular may be linked-to from your own Web pages, but must not otherwise be redistributed electronically.

    A form allowing access to any MPEC is at the bottom of this page.


    Read MPEC 2010-R36 Read MPEC 2010-R38


    M.P.E.C. 2010-R37                                Issued 2010 Sept. 5, 05:22 UT
    
         The Minor Planet Electronic Circulars contain information on unusual
             minor planets and routine data on comets.  They are published
       on behalf of Commission 20 of the International Astronomical Union by the
              Minor Planet Center, Smithsonian Astrophysical Observatory,
                              Cambridge, MA 02138, U.S.A.
    
                 Prepared using the Tamkin Foundation Computer Network
    
                                  MPC@CFA.HARVARD.EDU
           URL https://www.minorplanetcenter.org/iau/mpc.html  ISSN 1523-6714
    
                                       2010 RE12
    
    Observations:
         K10R12E* C2010 09 03.32528 22 33 28.76 +08 04 54.4          20.8 V ER037G96
         K10R12E  C2010 09 03.33211 22 33 28.76 +08 05 05.3          20.6 V ER037G96
         K10R12E  C2010 09 03.33890 22 33 28.80 +08 05 16.2          20.6 V ER037G96
         K10R12E  C2010 09 03.34573 22 33 28.80 +08 05 27.7          20.5 V ER037G96
         K10R12E  C2010 09 03.38477 22 33 28.94 +08 06 30.8          20.2 V ER037G96
         K10R12E  C2010 09 03.38616 22 33 28.94 +08 06 32.9          20.2 V ER037G96
         K10R12E  C2010 09 03.38754 22 33 28.94 +08 06 34.5          20.3 V ER037G96
         K10R12E  C2010 09 03.38895 22 33 28.94 +08 06 36.5          20.3 V ER037G96
         K10R12E  C2010 09 04.25354 22 33 42.01 +08 29 41.4          20.4 V ER037G96
         K10R12E  C2010 09 04.25560 22 33 42.01 +08 29 44.7          20.7 V ER037G96
         K10R12E  C2010 09 04.25767 22 33 42.04 +08 29 48.0          20.9 V ER037G96
         K10R12E  C2010 09 04.25973 22 33 42.04 +08 29 51.3          20.7 V ER037G96
         K10R12E  C2010 09 04.26181 22 33 42.04 +08 29 54.8          20.4 V ER037G96
         K10R12E tC2010 09 04.36189 22 33 42.33 +08 32 33.1          21.2 V ER037291
         K10R12E tC2010 09 04.36574 22 33 42.35 +08 32 39.2          20.9 V ER037291
         K10R12E tC2010 09 04.36944 22 33 42.31 +08 32 45.0          21.0 V ER037291
         K10R12E  C2010 09 04.41471 22 33 42.48 +08 33 54.6          20.3 R ER037H01
         K10R12E  C2010 09 04.42315 22 33 42.53 +08 34 07.8          20.3 R ER037H01
         K10R12E  C2010 09 04.43256 22 33 42.59 +08 34 22.4          20.1 R ER037H01
         K10R12E  C2010 09 04.44337 22 33 42.67 +08 34 39.4          20.3 R ER037H01
         K10R12E  C2010 09 05.17533 22 33 55.44 +08 53 44.3          20.4 R ER037H01
         K10R12E  C2010 09 05.18163 22 33 55.47 +08 53 54.3          20.2 R ER037H01
         K10R12E  C2010 09 05.18917 22 33 55.52 +08 54 05.7          20.4 R ER037H01
         K10R12E  C2010 09 05.20011 22 33 55.58 +08 54 22.9          20.1 R ER037H01
    
    Observer details:
    291 LPL/Spacewatch II.  Observer T. H. Bressi.  1.8-m f/2.7 reflector + CCD.
    G96 Mt. Lemmon Survey.  Observer A. Boattini.  Measurers J. D. Ahern,
        E. C. Beshore, A. Boattini, G. J. Garradd, A. R. Gibbs, A. D. Grauer,
        R. E. Hill, R. A. Kowalski, S. M. Larson, R. H. McNaught.  1.5-m reflector
        + CCD.
    H01 Magdalena Ridge Observatory, Socorro.  Observers W. H. Ryan, E. V. Ryan.
        Measurer W. H. Ryan.  2.4-m f/8.9 reflector + CCD.
    
    Orbital elements:
    2010 RE12                                                Earth MOID = 0.2760 AU
    Epoch 2010 July 23.0 TT = JDT 2455400.5                 MPC
    M 348.05620              (2000.0)            P               Q
    n   0.28614140     Peri.   28.09857     +0.94179102     +0.32344722
    a   2.2807740      Node   312.72263     -0.32709124     +0.81845785
    e   0.4394132      Incl.    7.17162     -0.07772382     +0.47487751
    P   3.44           H   22.1           G   0.15           U   7
    Residuals in seconds of arc
    100903 G96  0.0   0.1-    100904 G96  0.1-  0.2-    100904 H01  0.1+  0.0
    100903 G96  0.3-  0.2-    100904 G96  0.2-  0.2-    100904 H01  0.1+  0.0
    100903 G96  0.1+  0.3-    100904 G96  0.2+  0.2-    100904 H01  0.0   0.0
    100903 G96  0.1-  0.2+    100904 G96  0.1+  0.1-    100904 H01  0.0   0.1+
    100903 G96  0.2+  0.6+    100904 G96  0.0   0.1+    100905 H01  0.1-  0.0
    100903 G96  0.1+  0.4+    100904 291  0.2+  0.0     100905 H01  0.1-  0.2+
    100903 G96  0.1+  0.2-    100904 291  0.3+  0.1+    100905 H01  0.1+  0.2-
    100903 G96  0.0   0.5-    100904 291  0.5-  0.0     100905 H01  0.2+  0.1-
    
    Ephemeris:
    2010 RE12                a,e,i = 2.28, 0.44, 7                   q = 1.2786
    Date    TT    R. A. (2000) Decl.     Delta      r     Elong.  Phase     V
    2010 09 01    22 32.98   +07 00.7    0.277    1.279   164.4    12.2    20.6
    2010 09 11    22 35.50   +11 12.7    0.286    1.281   161.1    14.7    20.7
    2010 09 21    22 39.90   +14 14.5    0.307    1.292   156.6    18.0    21.0
    2010 10 01    22 47.11   +16 09.1    0.338    1.310   152.0    21.1    21.4
    2010 10 11    22 57.34   +17 10.3    0.380    1.335   147.4    23.8    21.7
    2010 10 21    23 10.44   +17 37.7    0.433    1.366   142.8    26.2    22.1
    2010 10 31    23 25.83   +17 47.6    0.497    1.403   138.1    28.2    22.6
    2010 11 10    23 42.92   +17 52.1    0.572    1.444   133.3    30.0    23.0
    2010 11 20    00 01.25   +17 59.7    0.659    1.489   128.3    31.4    23.4
    
    Carl W. Hergenrother         (C) Copyright 2010 MPC           M.P.E.C. 2010-R37
    

    Read MPEC 2010-R36 Read MPEC 2010-R38


    MPEC number:

    Enter an MPEC number in one of the following forms:

    • 1997-B01 (the full form)
    • J97B01 (the packed version of the full form)
    • B01 (the abbreviated form)